This demonstration page uses our WeatherBlox Daily Observations layout. Learn more.

Left ArrowRight Arrow

39.12711, -84.51439

Hourly Observations for December 21, 2018

Temp ( °F °C ) Dew Point ( °F °C ) Humidity (%) Winds ( mph kmh ) Pressure ( in mb ) Visibility ( mi km ) Precip ( " mm )
12:33 am 00:33 Cloudy with Light Rain 44 6.7 42 5.6 93 93 N 7 11 29.47 998 6 10 0.02 0.51
1:53 am 01:53 Cloudy with Light Rain 44 6.7 42 5.6 93 93 NNW 8 13 29.44 997 10 16 0.00 0.03
2:20 am 02:20 Cloudy with Light Rain 44 6.7 41 5 89 89 NNW 12 19 29.47 998 8 13 0.01 0.25
2:30 am 02:30 Cloudy with Light Rain 44 6.7 41 5 89 89 NNW 8 13 29.47 998 10 16 0.01 0.25
2:53 am 02:53 Cloudy with Light Rain 44 6.7 41 5 89 89 NNW 8 13 29.43 997 10 16 0.01 0.25
3:53 am 03:53 Cloudy with Light Rain 44 6.7 40 4.4 85 85 NNW 9 15 29.43 997 10 16 0.00 0.03
4:23 am 04:23 Cloudy 43 6.1 40 4.4 89 89 NW 8 13 29.47 998 10 16 0.00 0.03
4:53 am 04:53 Cloudy 43 6.1 40 4.4 89 89 NNW 7 11 29.42 996 10 16 0.00 0.03
5:53 am 05:53 Cloudy 43 6.1 40 4.4 89 89 NNW 8 13 29.41 996 10 16 0.00 0.00
6:53 am 06:53 Mostly Cloudy 42 5.6 38 3.3 85 85 NNE 5 7 29.43 997 10 16 0.00 0.00
7:53 am 07:53 Cloudy 43 6.1 39 3.9 86 86 N 5 7 29.44 997 10 16 0.00 0.00
8:53 am 08:53 Cloudy 43 6.1 39 3.9 86 86 N 6 9 29.44 997 10 16 0.00 0.00
9:53 am 09:53 Cloudy 44 6.7 40 4.4 85 85 N 10 17 29.44 997 10 16 0.00 0.00
10:25 am 10:25 Cloudy 45 7.2 40 4.4 83 83 NNW 10 17 29.47 998 10 16 0.00 0.00
10:53 am 10:53 Cloudy 45 7.2 40 4.4 83 83 N 10 17 29.44 997 10 16 0.00 0.00
11:53 am 11:53 Cloudy 45 7.2 40 4.4 83 83 NNW 14 22 29.43 997 10 16 0.00 0.00
12:53 pm 12:53 Cloudy 45 7.2 40 4.4 83 83 NNW 12 19 29.42 996 8 13 0.00 0.00
1:53 pm 13:53 Cloudy 45 7.2 40 4.4 83 83 NW 13 20 29.43 997 8 13 0.00 0.00
2:53 pm 14:53 Cloudy 43 6.1 40 4.4 89 89 NW 10 17 29.46 998 10 16 0.00 0.03
3:53 pm 15:53 Cloudy with Light Rain 42 5.6 38 3.3 85 85 NW 10 17 29.51 999 10 16 0.01 0.25
4:53 pm 16:53 Cloudy 41 5 37 2.8 86 86 NW 13 20 29.55 1001 10 16 0.00 0.03
5:53 pm 17:53 Cloudy with Light Rain 40 4.4 36 2.2 86 86 NW 9 15 29.58 1002 9 14 0.02 0.51
6:36 pm 18:36 Cloudy with Light Rain 39 3.9 35 1.7 86 86 WNW 8 13 29.62 1003 10 16 0.00 0.03
6:53 pm 18:53 Cloudy 39 3.9 35 1.7 86 86 NW 8 13 29.61 1003 10 16 0.00 0.03
7:53 pm 19:53 Cloudy 39 3.9 34 1.1 82 82 NW 9 15 29.64 1004 10 16 0.01 0.25
8:53 pm 20:53 Cloudy with Light Rain 38 3.3 33 0.6 83 83 NW 10 17 29.67 1005 10 16 0.00 0.03
9:53 pm 21:53 Cloudy with Light Rain 38 3.3 32 0 79 79 WNW 15 24 29.70 1006 10 16 0.00 0.03
10:53 pm 22:53 Cloudy 37 2.8 32 0 82 82 NW 9 15 29.73 1007 10 16 0.00 0.03
11:53 pm 23:53 Cloudy 36 2.2 31 -0.6 82 82 W 14 22 29.76 1008 10 16 0.00 0.00

Powered by AerisWeather